TimeCST,TemperatureF,Dew PointF,Humidity,Sea Level PressureIn,VisibilityMPH,Wind Direction,Wind SpeedMPH,Gust SpeedMPH,PrecipitationIn,Events,Conditions,WindDirDegrees,DateUTC
12:53 AM,6.1,1.0,80,30.24,10.0,SSW,4.6,-,0.00,,Overcast,200,2013-01-15 06:53:00
1:53 AM,7.0,1.9,80,30.23,9.0,SSW,3.5,-,N/A,,Overcast,210,2013-01-15 07:53:00
2:06 AM,6.8,1.4,79,30.12,9.0,SW,9.2,-,N/A,,Overcast,230,2013-01-15 08:06:00
3:53 AM,7.0,1.9,80,30.21,10.0,WSW,10.4,-,0.00,,Overcast,240,2013-01-15 09:53:00
4:27 AM,3.2,-0.4,85,30.09,10.0,SW,3.5,-,N/A,,Partly Cloudy,230,2013-01-15 10:27:00
4:53 AM,3.0,-0.9,84,30.19,10.0,South,3.5,-,N/A,,Clear,190,2013-01-15 10:53:00
5:53 AM,1.9,-0.9,88,30.19,9.0,South,5.8,-,N/A,,Mostly Cloudy,180,2013-01-15 11:53:00
6:53 AM,5.0,1.9,87,30.17,8.0,SSE,5.8,-,N/A,,Overcast,150,2013-01-15 12:53:00
7:53 AM,6.1,1.9,83,30.15,7.0,SSE,10.4,-,N/A,,Overcast,160,2013-01-15 13:53:00
8:53 AM,7.0,3.9,87,30.15,5.0,South,8.1,-,N/A,,Overcast,170,2013-01-15 14:53:00
9:53 AM,8.1,3.9,83,30.13,8.0,SSE,8.1,-,N/A,,Mostly Cloudy,160,2013-01-15 15:53:00
10:53 AM,12.0,5.0,73,30.09,10.0,South,9.2,-,N/A,,Mostly Cloudy,180,2013-01-15 16:53:00
11:53 AM,16.0,7.0,68,30.05,10.0,South,15.0,-,N/A,,Clear,190,2013-01-15 17:53:00
12:53 PM,19.0,7.0,59,30.02,10.0,SW,13.8,-,N/A,,Clear,220,2013-01-15 18:53:00
1:53 PM,21.0,7.0,55,29.98,10.0,SSW,13.8,-,N/A,,Clear,200,2013-01-15 19:53:00
2:53 PM,19.9,7.0,57,29.96,10.0,SSW,13.8,-,N/A,,Clear,200,2013-01-15 20:53:00
3:53 PM,19.9,6.1,55,29.95,10.0,SSW,10.4,-,N/A,,Clear,200,2013-01-15 21:53:00
4:53 PM,17.1,5.0,59,29.96,10.0,SSW,9.2,-,N/A,,Clear,200,2013-01-15 22:53:00
5:53 PM,17.1,6.1,62,29.92,10.0,South,10.4,-,N/A,,Clear,190,2013-01-15 23:53:00
6:53 PM,17.1,6.1,62,29.87,10.0,South,13.8,-,N/A,,Clear,190,2013-01-16 00:53:00
7:53 PM,16.0,6.1,65,29.83,10.0,SSW,12.7,-,N/A,,Clear,200,2013-01-16 01:53:00
8:53 PM,17.1,7.0,65,29.79,10.0,SSW,10.4,-,N/A,,Overcast,200,2013-01-16 02:53:00
9:53 PM,19.0,9.0,65,29.73,10.0,SSW,16.1,-,N/A,,Overcast,200,2013-01-16 03:53:00
10:01 PM,19.4,10.4,68,29.63,10.0,SSW,16.1,21.9,N/A,,Overcast,200,2013-01-16 04:01:00
10:50 PM,19.4,12.2,74,29.59,2.5,SSW,18.4,21.9,0.00,Snow,Light Snow,200,2013-01-16 04:50:00
10:53 PM,19.0,12.9,77,29.67,2.5,SSW,17.3,-,0.00,Snow,Light Snow,200,2013-01-16 04:53:00
11:05 PM,19.4,14.0,80,29.58,2.5,SSW,15.0,23.0,0.00,Snow,Light Snow,200,2013-01-16 05:05:00
11:15 PM,19.4,14.0,80,29.57,3.0,SSW,15.0,-,0.00,Snow,Light Snow,200,2013-01-16 05:15:00
11:35 PM,19.4,15.8,86,29.56,2.0,SSW,15.0,-,0.00,Snow,Light Snow,210,2013-01-16 05:35:00
11:53 PM,19.4,15.8,86,29.55,1.8,SW,16.1,23.0,N/A,Snow,Light Snow,220,2013-01-16 05:53:00